Regional Weather Roundup
Issued by NWS

Home | Current Version | Previous Version | Graphics & Text | Print | Product List | Glossary On
Versions: 1 2 3 4 5 6 7 8 9 10 11 12 13 14 15 16 17 18 19 20 21 22 23 24 25 26 27 28 29 30 31 32 33 34 35 36 37 38 39 40 41 42 43 44 45 46 47 48 49 50
000
ASUS45 KABQ 250210
RWRNM
WEATHER ROUNDUP FOR NEW MEXICO
NATIONAL WEATHER SERVICE ALBUQUERQUE NM
800 PM MDT THU JUL 24 2014

NOTE: "FAIR" MEANS FEW OR NO CLOUDS BELOW 12,000 FEET AGL WITH NO
       SIGNIFICANT WEATHER OR OBSTRUCTIONS TO VISION.

      THIS PRODUCT IS RELEASED AS TWO VERSIONS.  ONE VERSION NEAR
      THE TOP OF THE HOUR CONTAINING PRELIMINARY DATA FROM ALBUQUERQUE
      AND OTHER STATIONS.  A FINAL VERSION WITH ADDITIONAL DATA IS
      ISSUED ABOUT 10 MINUTES AFTER THE HOUR.

NMZ501-503-504-510>518-250300-
NORTHWEST PLATEAU/NORTHCENTRAL MOUNTAINS

CITY           SKY/WX    TMP DP  RH WIND       PRES   REMARKS
FARMINGTON     MOCLDY    87  43  21 NW9       30.12R
LOS ALAMOS     CLEAR     78  38  24 S8        30.31R
SANTA FE       CLEAR     80  41  24 SW7       30.23R
TAOS           CLEAR     81  39  22 SW10      30.29R
ANGEL FIRE     FAIR      68  42  39 SW10      30.39S

$$
NMZ402-403-502-505>509-250300-
WESTCENTRAL MOUNTAINS/SOUTHWEST MOUNTAINS

CITY           SKY/WX    TMP DP  RH WIND       PRES   REMARKS
GALLUP         PTCLDY    84  34  16 S7        30.22R
GRANTS         PTCLDY    82  39  21 SE13      30.24R
SILVER CITY    CLEAR     84  39  20 S13       30.19S

$$
NMZ407-409-411-412-250300-
SOUTHERN DESERTS

CITY           SKY/WX    TMP DP  RH WIND       PRES   REMARKS
LORDSBURG      FAIR      90  41  18 SE12      30.06S
DEMING         CLEAR     90  44  20 S5        30.07S
LAS CRUCES     CLEAR     91  40  17 S6        30.10S
HOLLOMAN AFB   PTCLDY    92  42  17 S9        30.05S
ALAMOGORDO     PTCLDY    90  39  17 S9        30.07S
T OR C         CLEAR     90  39  16 SW12      30.11S

$$
NMZ519>523-250300-
CENTRAL VALLEYS/CENTRAL HIGHLANDS

CITY           SKY/WX    TMP DP  RH WIND       PRES   REMARKS
ALBUQUERQUE    PTCLDY    88  38  17 S9        30.15S
DOUBLE EAGLE   PTCLDY    84  39  20 SE9       30.20S
MORIARTY ARPT  FAIR      78  43  28 S7        30.23S
CLINES CORNERS PTCLDY    78  40  25 SW9       30.29R
BELEN          FAIR      87  42  20 S9        30.14S
SOCORRO        FAIR      90  34  13 S9        30.11S

$$
NMZ524>526-539-540-250300-
SOUTHCENTRAL MOUNTAINS

CITY           SKY/WX    TMP DP  RH WIND       PRES   REMARKS
RUIDOSO        PTCLDY    73  45  35 MISG      30.33R

$$
NMZ527>531-250300-
NORTHEAST HIGHLANDS/NORTHEAST PLAINS

CITY           SKY/WX    TMP DP  RH WIND       PRES   REMARKS
LAS VEGAS      CLEAR     78  42  27 SW14      30.26R
RATON          NOT AVBL
CLAYTON        CLEAR     87  41  19 S20       30.08R

$$
NMZ532>537-250300-
EASTCENTRAL PLAINS

CITY           SKY/WX    TMP DP  RH WIND       PRES   REMARKS
TUCUMCARI      CLEAR     90  45  21 S12       30.04S
CANNON AFB     CLEAR     84  54  35 S6        30.11S
CLOVIS AIRPORT NOT AVBL

$$
NMZ028-029-538-250300-
SOUTHEAST PLAINS

CITY           SKY/WX    TMP DP  RH WIND       PRES   REMARKS
ROSWELL        CLEAR     92  45  19 SE7       30.04S
ARTESIA        CLEAR     91  45  19 SE6       30.04S
CARLSBAD       PTCLDY    95  41  15 SE8       30.01S
HOBBS          CLEAR     90  45  20 E9        30.08R


$$


USA.gov is the U.S. government's official web portal to all federal, state and local government web resources and services.